Simultaneous Nadir Overpasses (SNOs) Predictions

Prediction of SNOs between NOAA-20 and AQUA Satellite Orbit:

Table of predicted SNOs for the next 14.0 days since TLE Epoch: 5/27/2023
Index Date (NOAA-20) Time (NOAA-20) Lat,Lon (NOAA-20) SZA (NOAA-20 ) Date (AQUA) Time (AQUA) Lat,Lon (AQUA) SZA (AQUA ) Distance(km) Time Diff (sec)
1 05/27/2023 13:26:04 79.39,-125.23 71.44 05/27/2023 13:27:18 79.26,-124.85 71.36 16.31 74
2 05/27/2023 14:16:18 -80.32, 51.22 110.32 05/27/2023 14:16:13 -80.31, 51.22 110.32 0.12 5
3 05/30/2023 04:01:02 80.20, 23.64 69.55 05/30/2023 04:02:00 80.20, 23.74 69.49 1.96 58
4 05/30/2023 04:51:41 -80.36,-167.08 110.81 05/30/2023 04:51:20 -80.36,-167.08 110.80 0.19 21
5 06/01/2023 18:36:23 80.29, 165.92 68.99 06/01/2023 18:37:05 80.29, 165.82 68.98 1.80 42
6 06/01/2023 19:27:06 -80.35, -26.04 111.14 06/01/2023 19:26:28 -80.35, -25.91 111.14 2.53 38
7 06/04/2023 09:11:46 80.33, -52.46 68.61 06/04/2023 09:12:11 80.32, -52.61 68.62 2.86 25
8 06/04/2023 10:02:28 -80.41, 115.92 111.59 06/04/2023 10:01:33 -80.42, 115.99 111.56 1.26 55
9 06/06/2023 23:47:09 80.34, 88.81 68.33 06/06/2023 23:47:16 80.33, 88.75 68.33 1.32 7
10 06/07/2023 00:37:51 -80.42,-102.78 111.87 06/07/2023 00:36:38 -80.43,-102.64 111.84 2.60 73
11 06/09/2023 13:31:52 -80.26, 61.66 111.71 06/09/2023 13:33:00 -80.26, 61.62 111.75 0.70 68



Historial Predications of SNOs between NOAA-20 and AQUA
